{"data":{"norad_id":69001,"intl_designator":"2026-100X","name":"FOREST-19 (PATADASTRA)","alt_names":[],"object_type":"PAYLOAD","status":"ACTIVE","operator":null,"country":"GREC","launch_date":"2026-05-03","launch_site_code":"AFWTR","launch_vehicle":null,"mission":null,"orbit_class":"UNKNOWN","rcs_meters":null,"size_class":null,"mass_kg":null,"dimensions":null,"purposes":[],"wikipedia_slug":null,"has_3d_model":false,"image_url":null,"decayed_at":null,"tle_current":{"epoch":"2026-09-20T04:07:39.834048Z","epoch_age_seconds":47777,"freshness":"FRESH","line1":"1 69001U 26100X   26263.17198882  .00000664  00000+0  69335-4 0  9993","line2":"2 69001  97.7238 158.9943 0002742  70.8404 289.3112 14.92925648 20863","mean_motion":14.92925648,"eccentricity":0.0002742,"inclination_deg":97.7238,"raan_deg":158.9943,"arg_perigee_deg":70.8404,"mean_anomaly_deg":289.3112,"bstar":6.9335e-5,"rev_number":2086,"period_min":96.454903961835,"perigee_km":586.90845988163,"apogee_km":590.72913844189,"semimajor_km":6966.9557991618,"source":"CELESTRAK","updated_at":"2026-09-20T09:00:24.625945Z"}}}